[Iaude] MPEC G59: 2024 GQ [a=1.25,e=0.24,i=15.4,H=27.2]

mpec at cfa.harvard.edu mpec at cfa.harvard.edu
Fri Apr 5 08:58:28 EDT 2024


M.P.E.C. 2024-G59                                 Issued 2024 April 5, 12:57 UT

     The Minor Planet Electronic Circulars contain information on unusual
         minor planets, routine data on comets and natural satellites,
         and occasional editorial announcements.  They are published
    on behalf of Division F of the International Astronomical Union by the
          Minor Planet Center, Smithsonian Astrophysical Observatory,
                          Cambridge, MA 02138, U.S.A.
			  
             Prepared using the Tamkin Foundation Computer Network

                              MPC at CFA.HARVARD.EDU
            URL https://www.minorplanetcenter.net/    ISSN 1523-6714

                                    2024 GQ                                     


Observations:
     K24G00Q*HC2024 04 04.36182112 45 08.840+25 28 11.40         20.19GVEG059V00
     K24G00Q HC2024 04 04.36685712 45 03.720+25 26 38.50         21.53GVEG059V00
     K24G00Q HC2024 04 04.37184512 44 58.660+25 25 06.40         21.79GVEG059V00
     K24G00Q HC2024 04 04.37682412 44 53.680+25 23 35.90               VEG059V00
     K24G00Q KC2024 04 04.44498712 43 45.012+25 02 03.52         20.40GVEG059I52
     K24G00Q KC2024 04 04.45003012 43 39.994+25 00 26.42         20.46GVEG059I52
     K24G00Q KC2024 04 04.45507812 43 34.979+24 58 48.97         20.38GVEG059I52
     K24G00Q KC2024 04 04.46011412 43 30.004+24 57 11.56         20.33GVEG059I52
     K24G00Q 1C2024 04 04.96127 12 35 32.84 +22 03 02.3          20.7 VXEG059033
     K24G00Q 1C2024 04 04.96184 12 35 32.13 +22 02 48.8          20.8 VXEG059033
     K24G00Q 1C2024 04 04.96242 12 35 31.48 +22 02 35.9          20.2 VXEG059033
     K24G00Q KB2024 04 05.15530 12 32 14.201+20 47 00.31         20.3 RZEG059H36
     K24G00Q KB2024 04 05.16199 12 32 05.983+20 44 16.98         20.0 RZEG059H36
     K24G00Q KB2024 04 05.16859 12 31 57.898+20 41 36.13         20.1 RZEG059H36
     K24G00Q KC2024 04 05.18707312 31 40.649+20 34 24.24         20.08GVEG059I52
     K24G00Q KC2024 04 05.18758012 31 40.062+20 34 11.89         19.74GVEG059I52
     K24G00Q KC2024 04 05.18808612 31 39.403+20 33 59.58         20.02GVEG059I52
     K24G00Q KC2024 04 05.18859912 31 38.770+20 33 46.87         20.12GVEG059I52
     K24G00Q KC2024 04 05.19549312 31 28.39 +20 30 45.1          19.9 GXEG059858
     K24G00Q KC2024 04 05.20244512 31 19.70 +20 27 53.0          20.0 GXEG059858
     K24G00Q KC2024 04 05.20952412 31 10.83 +20 24 56.6          20.0 GXEG059858

Observer details:
033 Karl Schwarzschild Observatory, Tautenburg.  Observers S. Melnikov, C.
    Hogner, F. Ludwig, M. Hartmann, B. Stecklum.  Measurer B. Stecklum.
    1.34-m f/3 Schmidt + CCD.
858 Tebbutt Observatory, Edgewood.  Observer F. B. Zoltowski.  0.51-m f/8.1
    Schmidt-Cassegrain + CCD.
H36 Sandlot Observatory, Scranton.  Observer G. Hug.  0.56-m f/4.8 reflector +
    CMO.
I52 Steward Observatory, Mt. Lemmon Station.  Observers R. A. Kowalski, H.
    Groeller.  Measurers T. Beuden, V. F. Carvajal, D. Fay, J. B. Fazekas, D.
    C. Fuls, A. R. Gibbs, A. D. Grauer, H. Groeller, J. K. Hogan, R. A.
    Kowalski, S. M. Larson, G. J. Leonard, D. Rankin, R. L. Seaman, F. C.
    Shelly, K. W. Wierzchos.  1.0-m prime focus + CCD.
V00 Kitt Peak-Bok.  Observers V. F. Carvajal, K. W. Wierzchos.  Measurers M.
    J. Brucker, C. E. Woodward, T. Beuden, V. F. Carvajal, D. Fay, J. B.
    Fazekas, D. C. Fuls, A. R. Gibbs, H. Groeller, J. K. Hogan, R. A.
    Kowalski, S. M. Larson, C. Lejoly, G. J. Leonard, R. A. Mastaler, R. S.
    McMillan, D. Rankin, R. L. Seaman, F. C. Shelly, K. W. Wierzchos.  2.25-m
    reflector + 4x4K mosaic CCD.

Orbital elements:
2024 GQ                                                  Earth MOID = 0.0133 AU
Epoch 2024 Mar. 31.0 TT = JDT 2460400.5                 Veres                   
M 325.55351              (2000.0)            P               Q                  
n   0.70327665     Peri.  227.29493     -0.44122704     +0.89402536             
a   1.2523294      Node    17.01470     -0.72602611     -0.30473776             
e   0.2385241      Incl.   15.39881     -0.52745121     -0.32841065             
P   1.40           H   27.25          G   0.15           U   8                  
Residuals in seconds of arc
240404 V00  0.1+  0.1-    240404 I52  0.0   0.2+    240405 I52  0.2-  0.1-
240404 V00  0.2-  0.4-    240404 033  0.5+  0.1+    240405 I52  0.4+  0.0
240404 V00  0.4-  0.6-    240404 033  0.2-  0.4-    240405 I52  0.1-  0.1+
240404 V00  0.4+  1.0+    240404 033  0.1+  0.0     240405 I52  0.1-  0.1+
240404 I52  0.1+  0.1-    240405 H36  0.2-  0.5-    240405 858  0.0   0.2-
240404 I52  0.0   0.0     240405 H36  0.5-  0.6-    240405 858  0.0   0.3+
240404 I52  0.1-  0.1+    240405 H36  0.1-  0.1+    240405 858  0.2+  0.4+

Ephemeris:
2024 GQ                  a,e,i = 1.25, 0.24, 15                  q = 0.9536
Date    TT    R. A. (2000) Decl.     Delta      r    Elong.  Phase     V
2024 03 06    13 54 54.1 +42 41 39   0.1966  1.1230   127.6    44.4    25.7
...
2024 03 21    13 52 24.5 +42 33 53   0.1082  1.0696   130.6    45.0    24.3
...
2024 03 29    13 34 46.4 +39 11 55   0.06239 1.0434   135.0    42.6    23.0
...
2024 04 04    12 50 24.3 +27 11 03   0.02973 1.0252   147.1    32.0    21.0
2024 04 05    12 34 53.2 +21 51 20   0.02484 1.0223   151.6    27.7    20.5
2024 04 06    12 14 10.3 +13 54 35   0.02041 1.0195   156.7    22.9    19.9
...
2024 04 12    06 34 13.3 -59 29 55   0.02452 1.0033    91.4    87.2    22.3
...
2024 04 20    03 34 44.7 -56 03 03   0.06677 0.9847    70.9   105.5    25.2
...
2024 05 05    02 50 50.7 -50 55 53   0.1483  0.9608    67.2   104.7    26.9

M. P. C. Staff               (C) Copyright 2024 MPC           M.P.E.C. 2024-G59





More information about the Iaude mailing list